| time (UTC) | temp C | wind direction | speed KPH | gust KPH | rain 1hr cm | rain 24hr cm | rain mn cm | humidity % | barometer mb |
| 20260505084456 | 13 | 16 | 3.2 | 8.0 | 0.00 | 0.00 | 0.00 | 72 | 1010.1 |
| 20260505082956 | 13 | 56 | 1.6 | 4.8 | 0.00 | 0.00 | 0.00 | 68 | 1009.8 |
| 20260505081456 | 13 | 56 | 1.6 | 4.8 | 0.00 | 0.00 | 0.00 | 69 | 1009.8 |
| 20260505075958 | 13 | 338 | 0.0 | 1.6 | 0.00 | 0.00 | 0.00 | 68 | 1009.7 |
| 20260505072956 | 14 | 338 | 1.6 | 4.8 | 0.00 | 0.00 | 0.00 | 66 | 1009.8 |
| 20260505065958 | 14 | 338 | 1.6 | 6.4 | 0.00 | 0.00 | 0.00 | 65 | 1009.9 |
| 20260505064456 | 14 | 328 | 1.6 | 8.0 | 0.00 | 0.00 | 0.00 | 64 | 1009.8 |
| 20260505061456 | 14 | 169 | 1.6 | 6.4 | 0.00 | 0.00 | 0.00 | 64 | 1009.9 |
| 20260505055958 | 14 | 53 | 1.6 | 4.8 | 0.00 | 0.00 | 0.00 | 62 | 1009.9 |
| 20260505052956 | 14 | 34 | 1.6 | 4.8 | 0.00 | 0.00 | 0.00 | 61 | 1010.0 |
| 20260505051456 | 14 | 88 | 3.2 | 6.4 | 0.00 | 0.00 | 0.00 | 61 | 1009.9 |
| 20260505041500 | 15 | 95 | 3.2 | 8.0 | 0.00 | 0.00 | 0.00 | 58 | 1009.8 |
| 20260505040000 | 15 | 93 | 3.2 | 6.4 | 0.00 | 0.00 | 0.00 | 58 | 1009.7 |
| 20260505034459 | 15 | 89 | 3.2 | 8.0 | 0.00 | 0.00 | 0.00 | 58 | 1009.8 |
| 20260505032959 | 15 | 90 | 3.2 | 8.0 | 0.00 | 0.00 | 0.00 | 56 | 1009.9 |
| 20260505031459 | 15 | 59 | 3.2 | 6.4 | 0.00 | 0.00 | 0.00 | 56 | 1010.0 |
| 20260505030001 | 15 | 61 | 3.2 | 6.4 | 0.00 | 0.00 | 0.00 | 55 | 1010.0 |
| 20260505024500 | 16 | 34 | 3.2 | 8.0 | 0.00 | 0.00 | 0.00 | 54 | 1010.1 |
| 20260505022959 | 16 | 66 | 1.6 | 6.4 | 0.00 | 0.00 | 0.00 | 53 | 1010.2 |
| 20260505021459 | 16 | 41 | 1.6 | 4.8 | 0.00 | 0.00 | 0.00 | 53 | 1010.3 |
| 20260505015958 | 16 | 44 | 1.6 | 4.8 | 0.00 | 0.00 | 0.00 | 52 | 1010.3 |
| 20260505014458 | 16 | 44 | 1.6 | 4.8 | 0.00 | 0.00 | 0.00 | 51 | 1010.3 |
| 20260505012959 | 16 | 44 | 1.6 | 4.8 | 0.00 | 0.00 | 0.00 | 51 | 1010.0 |
| 20260505011458 | 16 | 324 | 0.0 | 3.2 | 0.00 | 0.00 | 0.00 | 53 | 1009.9 |
| 20260505004458 | 16 | 324 | 1.6 | 8.0 | 0.00 | 0.00 | 0.00 | 52 | 1009.5 |
| 20260505001458 | 17 | 335 | 1.6 | 4.8 | 0.00 | 0.00 | 0.00 | 50 | 1009.4 |
| 20260504235958 | 17 | 335 | 3.2 | 9.7 | 0.00 | 0.00 | 0.00 | 47 | 1009.3 |
| 20260504234458 | 18 | 25 | 1.6 | 6.4 | 0.00 | 0.00 | 0.00 | 48 | 1009.2 |
| 20260504232959 | 18 | 316 | 4.8 | 14.5 | 0.00 | 0.00 | 0.00 | 45 | 1009.0 |
| 20260504231457 | 19 | 307 | 4.8 | 11.3 | 0.00 | 0.00 | 0.00 | 45 | 1008.9 |
| 20260504224500 | 20 | 304 | 6.4 | 19.3 | 0.00 | 0.00 | 0.00 | 42 | 1008.8 |
| 20260504221459 | 21 | 310 | 4.8 | 16.1 | 0.00 | 0.00 | 0.00 | 41 | 1008.8 |
| 20260504215958 | 21 | 338 | 3.2 | 12.9 | 0.00 | 0.00 | 0.00 | 41 | 1008.8 |
| 20260504214458 | 21 | 298 | 3.2 | 8.0 | 0.00 | 0.00 | 0.00 | 42 | 1008.9 |
| 20260504212958 | 21 | 341 | 8.0 | 20.9 | 0.00 | 0.00 | 0.00 | 41 | 1008.9 |
| 20260504211458 | 21 | 326 | 6.4 | 16.1 | 0.00 | 0.00 | 0.00 | 38 | 1009.0 |
| 20260504210000 | 20 | 275 | 8.0 | 16.1 | 0.00 | 0.00 | 0.00 | 40 | 1009.1 |
| 20260504204458 | 21 | 288 | 8.0 | 19.3 | 0.00 | 0.00 | 0.00 | 39 | 1009.3 |
| 20260504202959 | 21 | 340 | 8.0 | 25.7 | 0.00 | 0.00 | 0.00 | 40 | 1009.2 |
| 20260504195958 | 21 | 263 | 8.0 | 17.7 | 0.00 | 0.00 | 0.00 | 39 | 1009.4 |
| 20260504190000 | 20 | 327 | 9.7 | 25.7 | 0.00 | 0.00 | 0.00 | 38 | 1009.9 |
| 20260504184458 | 20 | 306 | 9.7 | 32.2 | 0.00 | 0.00 | 0.00 | 40 | 1010.0 |
| 20260504182958 | 20 | 298 | 8.0 | 24.1 | 0.00 | 0.00 | 0.00 | 40 | 1010.1 |
| 20260504181458 | 20 | 359 | 6.4 | 20.9 | 0.00 | 0.00 | 0.00 | 41 | 1010.4 |
| 20260504175959 | 20 | 117 | 8.0 | 20.9 | 0.00 | 0.00 | 0.00 | 41 | 1010.7 |
| 20260504174458 | 19 | 281 | 9.7 | 25.7 | 0.00 | 0.00 | 0.00 | 38 | 1010.8 |
| 20260504172959 | 19 | 264 | 9.7 | 20.9 | 0.00 | 0.00 | 0.00 | 39 | 1011.0 |
| 20260504171458 | 18 | 314 | 9.7 | 19.3 | 0.00 | 0.00 | 0.00 | 40 | 1011.1 |